Back to catalog

INTELSAT 603

AliveCommunicationsGEO
NORAD 20523·PAYLOAD· XX

Launched Mar 14, 1990 from Cape Canaveral Space Force Station

Loading…

TLE

FreshSource: Space-Track

Epoch: Sep 14, 2026, 00:10 UTC

1 20523U 90021A   26257.00718978 -.00000086  00000-0  00000-0 0  9991
2 20523  14.0720   8.6624 0003659  78.2047 280.2536  0.99483385126289

Track INTELSAT 603 in real time with AllMySat

Download on the App Store